EDT,Max TemperatureF,Mean TemperatureF,Min TemperatureF,Max Dew PointF,MeanDew PointF,Min DewpointF,Max Humidity, Mean Humidity, Min Humidity, Max Sea Level PressureIn, Mean Sea Level PressureIn, Min Sea Level PressureIn, Max VisibilityMiles, Mean VisibilityMiles, Min VisibilityMiles, Max Wind SpeedMPH, Mean Wind SpeedMPH, Max Gust SpeedMPH,PrecipitationIn, CloudCover, Events, WindDirDegrees
2013-8-1,81,70,59,63,59,51,100,68,36,29.92,29.90,29.87,10,6,0,20,9,24,0.00,4,,268
2013-8-2,78,67,55,62,58,53,86,70,54,29.92,29.87,29.81,10,10,10,26,10,31,0.06,2,Rain,249
2013-8-3,79,67,55,57,54,52,93,68,43,30.08,30.00,29.92,10,10,10,20,7,25,0.00,2,,306
2013-8-4,75,65,55,54,52,50,86,66,46,30.20,30.14,30.10,10,10,10,12,7,16,0.00,2,,11
2013-8-5,73,65,57,59,53,50,84,67,49,30.12,30.06,29.96,10,10,10,13,6,18,0.01,5,Rain,188
2013-8-6,79,72,64,67,62,55,87,75,62,29.96,29.91,29.86,10,10,7,14,8,17,0.03,6,Rain,185
2013-8-7,84,74,64,67,64,61,93,74,55,29.95,29.84,29.80,10,8,1,29,10,36,0.98,4,Rain,256
2013-8-8,75,67,58,61,54,47,93,66,38,30.05,30.01,29.95,10,10,10,14,7,18,0.00,0,,37
2013-8-9,81,68,55,59,55,51,90,66,42,30.03,29.98,29.93,10,10,10,20,8,25,0.00,1,,266
2013-8-10,76,65,54,56,51,46,89,66,43,30.17,30.12,30.04,10,10,10,12,4,16,0.00,2,,334
2013-8-11,78,67,56,59,55,52,93,68,43,30.14,30.11,30.06,10,10,10,13,5,16,0.00,3,,258
2013-8-12,79,72,64,65,61,58,84,71,58,30.07,29.95,29.84,10,10,10,18,4,21,0.00,5,,234
2013-8-13,70,61,51,57,46,41,78,59,40,30.10,29.99,29.88,10,10,10,20,12,25,0.00,4,,335
2013-8-14,73,62,50,49,47,44,89,64,38,30.18,30.15,30.11,10,10,10,15,8,22,0.00,1,,300
2013-8-15,77,62,47,53,48,44,86,61,36,30.17,30.13,30.07,10,10,10,13,7,,0.00,2,,234
2013-8-16,80,66,51,53,51,46,89,61,32,30.22,30.17,30.12,10,10,10,12,4,14,0.00,0,,115
2013-8-17,83,69,54,58,53,49,87,59,31,30.28,30.24,30.21,10,10,10,18,3,,0.00,0,,134
2013-8-18,82,69,55,59,53,49,93,63,33,30.25,30.19,30.12,10,10,7,18,3,28,0.00,0,,191
2013-8-19,85,70,55,58,55,52,93,64,34,30.13,30.09,30.03,10,10,8,17,6,18,0.00,0,,240
2013-8-20,88,75,61,64,60,57,90,65,39,30.12,30.08,30.05,10,10,10,17,7,22,0.00,1,,226
2013-8-21,89,78,66,66,63,61,87,63,38,30.11,30.05,29.97,10,10,7,20,9,24,0.00,1,,210
2013-8-22,83,73,63,68,65,60,90,74,58,30.09,30.02,29.93,10,10,9,22,7,26,T,1,Rain,275
2013-8-23,79,67,54,60,55,48,90,65,39,30.23,30.17,30.11,10,10,10,17,8,21,0.00,0,,28
2013-8-24,83,68,53,58,54,51,93,64,34,30.34,30.28,30.24,10,10,10,13,5,17,0.00,0,,167
2013-8-25,90,75,60,65,61,57,90,67,43,30.29,30.20,30.09,10,10,10,23,12,29,0.00,0,,209
2013-8-26,87,79,71,71,67,64,84,71,57,30.11,30.03,29.96,10,10,7,17,10,23,0.01,1,Rain,237
2013-8-27,77,74,71,73,71,66,94,88,82,29.99,29.91,29.83,10,8,2,33,5,44,1.16,6,Rain-Thunderstorm,214
2013-8-28,83,76,68,72,70,66,100,81,62,30.05,29.91,29.81,10,6,0,16,7,26,0.00,5,Fog,31
2013-8-29,87,76,65,70,66,62,100,73,45,30.11,30.06,30.00,10,4,0,8,2,9,0.01,3,Fog,321
2013-8-30,88,78,68,74,69,65,90,73,55,30.00,29.84,29.73,10,9,0,36,11,44,0.65,3,Fog-Rain,256
2013-8-31,78,71,63,66,64,61,93,75,56,29.89,29.85,29.79,10,10,10,17,7,20,0.00,6,,31